Hourly Data Report for October 09, 2015

All times are specified in Local Standard Time (LST). Add 1 hour to adjust for Daylight Saving Time where and when it is observed.

HALL BEACH A
NUNAVUT

68°46'33.000" N
81°14'33.000" W
9.10 m
2402354
71293
YUX

Download Data

Hourly Data (October 2015)
Hourly Data Report for October 9, 2015
Temp Definition
°C
Dew Point Temp Definition
°C
Rel Hum Definition
%
Wind Dir Definition
10's deg

Wind Spd Definition
km/h
Visibility Definition
km
Stn Press Definition
kPa
Hmdx Definition


Wind Chill Definition


Weather Definition


TIME
00:00 Legend Double Dagger -7.9 -8.8 93 28 13 16.1 100.40   -14 LegendNANA
01:00 Legend Double Dagger -7.8 -8.7 93 30 9 16.1 100.40   -12 LegendNANA
02:00 Legend Double Dagger -7.8 -8.6 94 29 9 16.1 100.42   -12 LegendNANA
03:00 Legend Double Dagger -7.7 -8.6 93 31 9 16.1 100.42   -12 LegendNANA
04:00 Legend Double Dagger -7.1 -7.9 94 30 8 16.1 100.44   -11 LegendNANA
05:00 Legend Double Dagger -6.0 -7.0 93 33 8 16.1 100.46   -10 LegendNANA
06:00 Legend Double Dagger -5.4 -6.2 94 32 8 16.1 100.48   -9 LegendNANA
07:00 Legend Double Dagger -4.9 -5.8 94 32 5 16.1 100.50   -7 LegendNANA
08:00 Legend Double Dagger -4.9 -5.9 93 31 5 16.1 100.50   -7 LegendNANA
09:00 Legend Double Dagger -5.3 -6.3 93 33 5 16.1 100.53   -8 LegendNANA
10:00 Legend Double Dagger -5.6 -6.6 93 30 13 16.1 100.55   -11 LegendNANA
11:00 Legend Double Dagger -4.0 -5.1 92 31 5 16.1 100.57   -6 LegendNANA
12:00 Legend Double Dagger -3.2 -4.8 89 33 11 16.1 100.59   -7 LegendNANA
13:00 Legend Double Dagger -2.6 -4.7 85 LegendMM LegendMM 16.1 100.61     LegendNANA
14:00 Legend Double Dagger -2.8 -5.0 85 35 13 16.1 100.64   -7 LegendNANA
15:00 Legend Double Dagger -3.3 -5.3 86 33 13 16.1 100.66   -8 LegendNANA
16:00 Legend Double Dagger -2.8 -6.1 78 3 13 16.1 100.69   -7 LegendNANA
17:00 Legend Double Dagger -3.2 -5.2 86 33 17 16.1 100.70   -9 Snow
18:00 Legend Double Dagger -3.5 -5.4 87 34 15 16.1 100.73   -9 LegendNANA
19:00 Legend Double Dagger -2.7 -5.2 83 36 22 16.1 100.75   -9 LegendNANA
20:00 Legend Double Dagger -2.7 -5.5 81 1 24 16.1 100.78   -9 LegendNANA
21:00 Legend Double Dagger -3.5 -5.6 85 35 24 16.1 100.77   -10 Snow
22:00 Legend Double Dagger -4.0 -5.7 88 34 22 16.1 100.76   -11 LegendNANA
23:00 Legend Double Dagger -2.6 -5.4 81 1 22 16.1 100.75   -9 LegendNANA

Notes on Data Quality.

Legend

  • E = Estimated
  • M = Missing
  • NA = Not Available
  • ‡ = Partner data that is not subject to review by the National Climate Archives
Date modified: